FENGYUN 1C DEB, 33619

Orbit data source: Space-Track

FENGYUN 1C DEB, 33619 is space debris in SSO originally from a launch on Mon, 10 May 1999 UTC launched from the Taiyaun Space Center, China (TSC). Fengyun 1C debris stems from the Chinese weather satellite Fengyun-1C, which was intentionally destroyed by a Chinese anti-satellite missile in 2007. This event dramatically increased the amount of space debris, with thousands of trackable fragments posing hazards to satellites and human spaceflight. The Fengyun 1C debris cloud has become a focal point in discussions about space sustainability and the need for international regulations to prevent the creation of new debris.

Loading next visibility...
Identifier
33619, 1999-025DDC
Orbit
SSO
Country
Flag of CNCN / PRC
Related business
Manufacturer
Unknown
Mission
Spacecraft
Bus & Motor
Unknown
Mass
Unknown
Launch date (UTC)
1999-05-10 (27 years ago)
Launch vehicle
Unknown
Launch site
Taiyaun Space Center, China (TSC)
Object type
Payload
Rocket body
Debris
Shape & HBR
Unknown shape, 0.1 m
Radar Cross Section
Small (<0.1 m²)

Expand to show TLE details & history
Last TLE update: 5 hours ago

TLE from 5 hours ago
0 FENGYUN 1C DEB
1 33619U 99025DDC 26121.45007513  .00002266  00000-0  11079-2 0  9990
2 33619  98.8478 195.4541 0049975   8.2838 351.9151 14.18292626656047
Epoch: 2026-05-01T10:48Z
TLE epoch observation values (Epoch: 2026-05-01T10:48:06.491Z)
Latitude
-0.00001°
Longitude
174.0449°
Altitude
798.367 km
Speed
7.473 km/s
True Right ascension
13h 01m 48s
True Declination
0° 00' 00"
Sunlit
Object was in full shadow at epoch
Visualization orbit readout
Latitude
Unknown
Longitude
Unknown
Altitude
Unknown
Speed
Unknown
Apparent Right ascension
Unknown
Apparent Declination
Unknown
Sunlit
N/A
Visualization observer readout
Local Sidereal Time
23:26:20
Azimuth
Unknown
Elevation
Unknown
Doppler factor
Unknown
Orbital elements
Apogee altitude
864.314 km
Perigee altitude
792.286 km
Semi-major axis
7,206.437 km
Eccentricity
0.005
Inclination
98.8478°
RAAN
195.4541°
Arg. of periapsis
8.2838°
True anomaly
351.83406°
Mean anomaly
351.9151°
Eccentric anomaly
351.87463°
Mean motion
3.54783 °/min
Orbital period
101.47 mins
BSTAR
0.0011079
Loading maneuver chart data...
Computing Atmospheric mass density...
Loading historical data...
Loading historical data...
Loading historical data...
Loading historical data...
Loading historical data...
Loading historical data...
Loading historical data...

Documentation

Showing up to 5 results
|